Starlink 31856

operational
NORAD ID: 59960 Int'l Des: 2024-107 Owner: SPXS Country: US Constellation: starlink
LEOCIRCULAR

Über Starlink 31856

Beschreibung wird geladen...

Live-Position

3D-Globus wird geladen...

Nächste Überflüge

Höhenverlauf

Altitude vs Time

uPlot chart will show altitude changes over time

Zweizeiliger Elementsatz

1 59960U 24107R 25308.25900375 .00002047 00000-0 81243-4 0 9997
2 59960 53.1607 288.0618 0001881 87.7233 272.3983 15.30200953 80598
Epoch: 4. Nov. 2025 • Age: 17 hours

Aktueller Status

Höhe 475.2 km
Geschwindigkeit 7.63 km/s
Subsatellitenpunkt 8.35°N, 106.03°W
Startdatum 5. Juni 2024
Alter 1.4 years
Typ internet

Technische Details

Klassifizierung Payload
Masse 730.00 kg
Trockenmasse 700.00 kg
Gesamtmasse 730.00 kg
Länge 0.30 m
Durchmesser 4.10 m
Spannweite 29.00 m
Form Box + pan
Hersteller SPXS
Bus-Typ Starlink V2M
Phasenstatus In Orbit
Besitzer/Staat SPXS/US

Große Konstellationen

Loading constellations...